Wetbulb
38.42 34.56 32.89 37.63 37.00 35.28 32.67 31.23 31.01 35.13 38.09 34.77 35.60 37.09 40.01 42.91 42.69 42.11 39.67 42.77 44.05 44.71 47.21 46.01 42.94 42.21 41.84 40.99 41.61 41.36 40.04 40.50 40.56 38.52 36.96 37.38 37.59 36.86 36.25 36.14 35.57 34.65 34.00 33.32
34.59 31.98 38.85 37.73 36.62 35.64 34.66 33.84 33.45 37.46 39.60 34.19 35.60 35.98 38.95 39.78 41.28 43.47 44.05 43.83 43.64 44.14 44.83 45.31 40.40 39.97 40.30 41.57 41.40 41.04 40.40 39.77 40.36 40.19 40.32 39.13 39.49 35.44 37.41 35.45 34.26 34.11 33.29 32.55
35.35 36.53 39.73 37.32 35.14 34.17 33.19 31.67 34.48 33.96 34.97 33.92 32.40 33.88 35.96 37.73 40.40 42.42 43.28 44.02 44.65 44.28 44.25 45.14 40.12 39.01 38.59 38.95 39.81 40.47 40.24 39.53 40.46 40.38 38.33 32.23 31.89 30.61 30.54 31.63 33.10 33.28 33.06 32.16
34.68 38.65 37.88 34.55 33.62 36.03 33.54 36.32 36.26 34.22 29.56 28.42 32.28 27.87 31.58 36.19 37.99 38.13 41.07 42.45 42.49 43.10 43.75 43.79 41.18 38.09 37.90 40.15 39.06 39.91 39.69 38.83 40.07 39.23 37.43 36.82 36.70 35.09 34.53 36.25 34.85 33.17 32.35 31.45
33.85 34.20 33.25 33.42 36.53 36.46 35.07 34.85 33.55 30.46 27.75 27.29 27.11 24.90 30.25 34.18 34.48 36.98 39.98 41.05 42.73 42.33 42.28 43.22 40.23 39.44 39.96 37.50 36.64 37.62 38.00 37.89 39.29 38.59 38.10 37.73 36.94 37.52 34.11 31.86 31.11 31.87 30.76 31.00
34.84 35.45 36.32 36.23 35.64 36.05 35.23 32.71 30.89 27.88 27.47 23.57 30.18 29.00 31.66 31.54 35.36 35.87 38.73 40.59 41.54 42.60 42.35 39.87 38.31 37.94 36.42 34.48 34.55 35.89 36.51 36.83 37.90 37.38 37.20 37.24 37.09 32.91 31.45 30.63 31.34 31.20 30.71 29.99
30.02 32.46 33.62 36.95 33.05 32.78 33.66 29.84 23.42 21.00 19.81 23.85 29.02 26.98 35.11 37.76 37.18 38.15 41.06 40.20 39.83 39.68 38.96 39.15 37.75 37.43 34.66 32.83 33.54 34.68 35.66 35.72 35.72 36.00 36.28 36.18 36.21 33.98 33.43 31.56 32.71 30.70 29.94 29.26
27.51 30.01 32.66 34.88 35.24 32.27 31.04 31.62 24.86 16.16 23.10 28.68 27.54 25.26 36.21 37.78 38.80 37.24 36.99 38.22 37.72 38.63 37.61 37.79 38.62 36.36 34.71 33.58 32.65 34.58 34.25 34.84 34.58 35.25 35.56 35.67 35.54 34.79 33.64 32.44 32.90 31.61 31.66 31.36
27.91 29.80 32.36 34.04 34.15 36.52 29.21 27.89 33.67 27.79 21.89 21.36 30.28 32.91 38.14 35.54 36.17 35.15 36.60 36.35 37.40 35.59 36.05 36.82 36.40 35.41 35.05 33.21 32.08 33.20 33.50 34.75 34.48 34.57 35.14 34.92 34.80 34.14 32.93 30.72 31.62 32.01 31.55 30.87
35.58 30.40 35.79 32.04 32.27 32.69 32.76 33.20 26.06 24.96 19.82 18.63 25.32 28.90 31.64 36.07 38.67 37.40 35.87 36.05 38.34 36.94 37.31 37.85 37.01 36.08 35.01 34.22 33.30 33.11 33.15 34.64 34.59 34.14 35.04 35.04 34.16 33.80 33.08 29.88 30.39 30.80 30.30 29.46
35.31 33.72 33.14 33.84 30.29 32.93 28.71 28.37 29.30 29.37 28.12 25.47 24.26 28.58 40.02 38.53 36.31 36.28 35.75 36.46 37.97 38.25 39.17 38.68 38.50 37.65 36.34 34.62 33.48 33.03 33.25 33.69 34.16 34.01 34.29 34.24 33.00 33.28 31.98 30.09 30.46 30.46 29.45 28.52
37.12 34.41 30.65 32.65 32.18 32.39 33.37 31.60 31.87 27.84 26.62 28.94 29.38 30.31 42.17 42.02 39.37 35.66 39.76 42.45 42.14 38.39 38.07 38.33 38.95 39.80 39.19 37.05 34.40 34.28 34.12 33.90 34.43 35.04 33.61 32.91 32.64 31.93 31.14 30.72 30.00 30.19 28.48 28.27
39.26 34.14 28.82 30.73 31.96 33.06 32.75 35.93 35.81 34.58 32.21 27.02 24.16 27.77 40.83 41.69 41.61 42.53 40.88 38.88 38.18 39.38 42.40 41.50 38.57 37.84 38.02 38.16 37.13 34.79 34.88 34.93 34.18 32.04 31.39 31.72 31.72 30.45 30.80 31.37 29.97 28.95 28.62 27.38
41.79 36.40 33.13 28.49 31.41 34.38 30.91 32.22 34.08 34.48 29.24 29.42 29.76 31.56 36.24 38.62 39.87 42.02 43.43 41.79 40.75 39.02 36.90 36.23 36.22 36.56 37.68 38.35 37.56 35.89 35.10 33.91 32.18 30.73 31.22 31.66 31.12 30.38 31.31 31.42 29.64 27.72 28.24 26.77
37.13 31.41 33.41 33.01 33.30 33.29 32.52 32.27 33.09 32.18 33.61 28.86 31.42 32.85 36.03 38.79 39.50 37.71 35.70 35.94 34.33 34.44 34.78 34.65 34.97 34.78 35.40 36.00 37.40 38.52 37.36 33.00 31.52 31.37 31.66 31.63 32.03 31.35 30.70 29.90 28.59 27.82 27.42 26.83
33.14 26.00 28.89 26.18 29.06 29.18 28.16 30.29 32.28 33.07 31.72 30.72 30.09 30.31 31.19 29.31 28.49 26.14 30.32 29.13 28.97 29.86 31.98 33.49 33.92 34.27 33.95 34.95 35.57 36.06 36.35 36.00 30.89 31.06 31.06 32.01 29.64 28.13 28.64 28.98 27.69 26.68 25.85 25.14
27.33 26.41 21.37 19.04 24.39 22.80 18.00 24.31 27.24 29.72 32.31 30.99 26.15 24.94 26.34 24.35 24.65 25.28 27.43 27.58 28.40 30.13 31.82 32.49 32.55 33.20 33.25 34.23 34.45 34.47 33.04 32.97 32.86 31.36 31.85 30.35 29.15 28.12 27.85 28.09 26.20 25.34 24.70 24.09
23.67 22.10 15.63 14.11 13.36 2.46 21.15 27.06 26.26 25.73 25.62 25.93 24.66 24.62 24.49 24.44 25.53 27.50 30.94 27.30 28.45 29.83 30.90 32.93 33.84 33.47 33.37 34.13 33.57 32.61 31.16 30.73 30.55 30.40 30.12 27.16 26.91 28.08 26.27 25.35 24.67 24.55 24.29 22.95
26.53 23.27 12.70 9.83 4.49 18.25 23.57 20.98 18.46 18.48 20.59 25.18 23.62 24.14 24.21 24.22 24.15 25.59 28.72 29.00 28.83 29.74 31.66 33.34 31.99 32.37 33.13 32.52 32.50 30.91 30.16 29.75 27.89 28.21 26.98 25.78 26.08 26.89 23.90 24.18 23.49 23.73 23.37 22.16
24.03 25.32 21.36 5.48 6.55 7.32 18.73 20.47 24.83 23.69 16.29 25.48 24.42 23.33 22.69 22.65 14.53 18.86 27.02 28.25 28.54 30.28 31.76 28.43 29.57 30.87 31.32 31.75 31.99 30.22 29.47 28.78 27.33 27.50 26.26 23.86 24.03 25.57 23.79 23.94 22.58 23.28 23.33 22.41
3.58 0.92 1.93 -0.83 4.74 11.43 18.82 20.65 23.15 10.17 12.28 19.82 22.35 23.04 21.27 18.36 20.26 24.46 26.51 26.21 28.88 28.54 25.88 27.16 26.46 26.35 27.91 30.28 30.63 30.09 30.32 29.70 28.09 23.37 22.08 19.85 19.70 20.23 20.53 21.54 21.03 21.95 21.62 20.80
8.44 -0.17 -1.44 -2.28 -5.68 2.72 21.21 20.69 14.65 19.03 23.70 25.47 25.39 23.78 22.72 23.40 23.47 23.32 24.17 24.24 23.43 23.21 23.82 24.64 24.08 25.00 25.57 26.00 26.92 27.43 28.39 30.77 26.95 22.01 19.68 18.15 16.75 19.18 17.85 20.37 17.84 16.21 18.60 17.80
7.37 13.39 7.85 11.09 9.91 22.48 23.95 22.78 25.31 26.12 24.21 23.43 22.60 23.35 23.45 22.00 20.77 22.16 21.42 21.02 21.73 21.83 21.90 22.15 22.07 20.52 21.51 23.15 22.76 21.28 23.32 26.05 30.12 26.09 23.39 21.72 22.02 20.97 17.93 19.88 18.61 17.35 17.66 17.90
18.20 22.09 16.37 13.57 20.52 20.76 23.37 24.96 24.94 25.36 23.67 24.07 24.08 22.18 21.08 18.87 20.38 20.32 19.65 19.67 19.36 19.17 19.12 20.15 18.20 16.94 16.64 18.04 19.06 19.56 20.84 23.96 22.15 25.45 25.65 22.51 20.31 19.58 19.67 19.93 19.12 18.64 17.16 17.42
18.93 18.57 15.50 16.51 20.95 22.43 23.72 24.70 25.10 24.68 23.37 22.93 21.88 20.66 19.34 18.80 17.76 18.02 17.10 16.70 17.14 17.44 17.57 16.75 15.29 13.97 13.56 15.26 14.82 15.78 17.16 17.40 16.84 19.83 23.79 22.61 20.07 19.20 17.92 18.89 18.45 19.12 19.81 20.52
21.82 19.06 16.04 14.40 22.78 22.03 22.85 25.84 24.59 21.61 21.20 19.44 17.51 17.13 18.73 17.92 16.24 16.21 14.46 15.62 15.57 14.70 14.52 12.70 11.63 10.68 9.99 10.09 9.90 10.41 12.30 12.69 12.91 13.87 17.85 22.05 20.30 18.64 18.16 17.66 17.35 23.75 23.78 23.76
MSLP
1015.66 1016.21 1015.94 1015.06 1015.15 1015.21 1015.84 1015.89 1015.48 1014.23 1013.36 1013.51 1012.63 1011.80 1011.12 1010.19 1009.49 1008.94 1008.22 1007.32 1006.21 1005.78 1004.00 1004.69 1004.95 1005.48 1006.44 1007.27 1007.95 1008.44 1009.30 1010.12 1011.24 1012.29 1013.30 1014.45 1014.75 1015.59 1016.22 1016.57 1017.00 1017.68 1018.26 1018.86
1016.30 1015.33 1014.06 1014.66 1015.15 1015.60 1015.86 1015.66 1015.09 1013.69 1013.12 1013.24 1012.34 1010.45 1010.10 1009.84 1008.48 1006.83 1006.07 1005.74 1004.86 1004.23 1003.74 1003.50 1004.49 1005.13 1005.52 1005.83 1006.62 1007.57 1008.14 1009.08 1009.92 1010.85 1011.56 1012.55 1013.54 1014.60 1015.23 1016.02 1016.63 1017.11 1017.77 1018.36
1014.76 1014.29 1014.12 1014.47 1014.99 1015.62 1014.94 1015.25 1014.04 1013.78 1013.47 1012.75 1011.56 1008.70 1008.71 1007.34 1006.75 1005.95 1004.46 1003.86 1003.94 1003.54 1003.32 1002.85 1004.01 1004.36 1004.85 1005.29 1005.65 1006.07 1006.76 1007.69 1008.60 1009.79 1011.27 1012.47 1013.59 1014.72 1015.41 1015.89 1016.31 1016.63 1017.18 1017.96
1014.48 1013.57 1013.93 1014.16 1014.42 1014.51 1014.07 1013.73 1013.76 1013.96 1014.54 1013.84 1012.37 1006.88 1007.03 1006.60 1005.76 1005.27 1004.06 1003.17 1002.91 1002.79 1002.57 1002.73 1003.07 1003.92 1004.08 1004.12 1005.06 1005.83 1006.52 1007.35 1008.22 1009.03 1009.98 1010.93 1011.65 1012.93 1013.49 1014.16 1015.28 1016.08 1016.70 1017.40
1013.70 1013.25 1013.80 1014.10 1012.80 1013.62 1013.08 1013.49 1013.81 1014.16 1014.87 1014.16 1012.90 1011.92 1005.58 1005.28 1005.51 1004.53 1003.72 1002.99 1002.03 1001.86 1002.00 1001.89 1002.62 1003.05 1003.06 1003.75 1004.38 1005.42 1006.47 1007.41 1007.82 1008.46 1009.01 1009.58 1010.43 1011.17 1012.00 1013.31 1014.50 1015.50 1016.30 1016.76
1013.36 1013.26 1013.08 1012.75 1012.71 1012.68 1013.04 1013.38 1014.22 1014.93 1014.91 1013.40 1012.17 1011.41 1002.48 1005.01 1004.32 1003.97 1003.55 1003.08 1002.66 1001.91 1001.29 1001.59 1001.84 1002.43 1003.17 1003.69 1004.20 1004.69 1005.40 1006.29 1007.30 1008.06 1008.49 1008.85 1009.57 1010.71 1011.84 1012.80 1013.83 1014.70 1015.57 1016.27
1013.03 1012.67 1011.87 1012.03 1013.08 1012.98 1013.25 1014.17 1015.04 1015.26 1014.66 1011.64 1009.95 1009.67 1004.39 1003.97 1003.76 1003.09 1002.95 1002.80 1003.08 1003.08 1002.80 1001.88 1002.23 1002.71 1003.21 1003.89 1004.37 1004.66 1005.57 1005.95 1006.32 1007.21 1008.04 1008.37 1008.76 1009.32 1010.13 1011.27 1012.39 1013.60 1014.76 1015.53
1013.94 1011.58 1011.64 1011.67 1011.70 1012.34 1013.11 1013.40 1014.57 1013.93 1013.00 1010.58 1009.82 1006.48 1002.90 1003.09 1002.95 1002.94 1003.05 1003.32 1003.20 1002.89 1002.89 1002.62 1002.13 1002.81 1004.14 1004.07 1004.79 1004.86 1005.32 1006.39 1006.81 1006.65 1006.90 1007.72 1008.29 1008.87 1009.63 1010.41 1010.88 1011.62 1012.34 1013.56
1013.43 1011.48 1011.24 1011.04 1010.94 1011.17 1012.61 1012.96 1012.03 1012.61 1012.09 1011.40 1007.90 1005.08 1002.90 1002.29 1002.48 1002.72 1003.06 1002.76 1003.29 1003.34 1003.16 1002.98 1002.36 1003.05 1003.24 1004.72 1005.40 1005.60 1005.70 1005.78 1006.59 1007.00 1006.79 1006.76 1007.25 1007.88 1008.61 1009.79 1010.79 1011.38 1011.77 1012.46
1012.48 1012.00 1010.87 1011.23 1011.03 1011.04 1011.13 1011.38 1012.30 1012.75 1012.15 1009.87 1007.14 1005.08 1003.18 1002.32 1002.69 1002.37 1002.80 1003.12 1002.95 1002.34 1003.47 1002.81 1003.02 1003.00 1003.04 1003.47 1004.34 1004.60 1005.38 1005.28 1005.21 1006.49 1006.82 1006.57 1006.60 1006.84 1007.51 1008.50 1009.53 1010.17 1011.21 1011.80
1012.60 1013.26 1011.39 1011.90 1011.37 1010.82 1011.81 1011.32 1011.04 1010.98 1010.70 1008.76 1006.72 1004.78 1001.75 1002.07 1002.56 1002.46 1002.53 1002.96 1003.02 1002.83 1003.27 1003.24 1003.10 1003.13 1003.58 1003.65 1003.83 1003.85 1004.22 1004.32 1004.38 1004.95 1005.49 1005.68 1006.02 1006.59 1007.03 1007.31 1008.22 1009.08 1010.06 1010.93
1012.42 1012.81 1012.46 1010.63 1010.62 1010.20 1010.53 1010.69 1010.89 1010.06 1008.37 1007.57 1006.01 1004.06 1002.80 1001.24 1002.14 1002.92 1002.51 1002.47 1002.71 1002.99 1002.85 1002.95 1003.35 1003.02 1002.86 1002.99 1002.97 1002.66 1003.16 1003.41 1003.53 1003.92 1004.64 1004.63 1005.19 1005.76 1006.31 1006.51 1006.94 1007.94 1008.73 1009.91
1012.53 1012.72 1012.35 1011.27 1010.95 1010.37 1010.48 1009.53 1009.73 1009.55 1008.73 1007.60 1005.96 1003.70 1003.47 1002.96 1001.54 1001.84 1002.73 1003.05 1002.83 1002.83 1002.69 1002.64 1002.70 1002.51 1002.51 1002.21 1002.07 1002.15 1002.21 1002.32 1002.56 1003.01 1003.82 1004.55 1004.79 1005.28 1005.32 1005.26 1006.02 1006.83 1007.71 1008.61
1013.61 1012.65 1012.78 1012.06 1011.73 1011.00 1010.44 1009.80 1009.45 1008.95 1007.94 1006.06 1005.22 1004.33 1004.70 1004.44 1003.71 1002.17 1002.62 1004.13 1004.87 1004.96 1005.52 1005.89 1005.49 1005.08 1005.19 1004.31 1003.33 1003.32 1002.72 1002.09 1001.89 1002.24 1002.79 1002.86 1003.73 1003.58 1003.92 1004.63 1005.45 1005.85 1006.35 1007.50
1013.96 1013.18 1012.97 1012.49 1012.41 1012.09 1011.47 1010.59 1010.08 1009.10 1007.70 1006.92 1006.37 1006.41 1006.60 1006.68 1006.21 1005.92 1006.01 1007.06 1007.70 1007.56 1007.46 1007.49 1006.81 1006.07 1006.06 1005.10 1004.16 1003.33 1002.30 1002.61 1002.13 1002.08 1002.30 1002.41 1001.99 1002.28 1003.20 1003.93 1004.52 1004.95 1005.67 1006.32
1015.24 1014.34 1014.22 1013.20 1012.60 1012.60 1011.75 1010.64 1009.56 1009.38 1008.43 1007.96 1007.73 1007.13 1009.13 1009.84 1009.55 1008.75 1008.96 1008.74 1008.85 1009.36 1008.93 1008.24 1007.90 1007.20 1006.46 1005.44 1004.69 1004.15 1003.44 1002.96 1002.67 1001.96 1001.52 1001.45 1001.99 1002.98 1002.54 1002.81 1003.48 1004.26 1004.89 1005.65
1016.08 1015.72 1015.61 1013.64 1013.44 1013.53 1011.50 1009.92 1009.69 1008.95 1008.50 1008.65 1009.64 1011.14 1011.14 1011.72 1011.70 1011.48 1011.28 1010.82 1010.66 1010.01 1009.31 1008.80 1008.15 1007.64 1007.12 1006.73 1005.89 1004.61 1004.23 1003.19 1002.74 1002.06 1001.27 1001.24 1001.45 1001.36 1001.43 1001.90 1002.67 1003.25 1004.30 1004.88
1015.64 1016.22 1016.78 1015.53 1015.13 1013.52 1010.12 1009.95 1010.48 1010.82 1011.30 1011.75 1012.32 1013.61 1013.02 1013.23 1013.21 1012.22 1011.61 1011.33 1011.09 1010.94 1009.66 1009.12 1008.74 1008.20 1007.64 1007.02 1006.30 1005.47 1004.73 1003.70 1002.99 1002.04 1001.48 1001.14 1001.56 1001.57 1001.55 1001.64 1001.78 1002.30 1003.28 1003.63
1015.82 1016.79 1017.35 1017.20 1015.88 1013.12 1011.97 1012.55 1013.22 1013.16 1012.95 1013.23 1013.50 1013.57 1013.61 1013.46 1012.68 1011.67 1011.85 1011.90 1011.18 1010.93 1010.28 1009.65 1009.77 1008.67 1007.67 1007.09 1006.27 1005.89 1005.44 1004.27 1002.99 1001.95 1001.98 1001.32 1001.22 1001.30 1001.26 1001.49 1001.53 1002.11 1003.06 1003.30
1016.27 1016.67 1018.01 1018.18 1017.38 1015.30 1013.89 1013.82 1013.42 1013.22 1013.42 1013.60 1013.65 1013.71 1013.63 1013.37 1012.86 1010.96 1011.37 1011.45 1011.06 1010.84 1010.34 1009.64 1009.30 1008.51 1008.27 1007.41 1006.77 1006.01 1005.61 1004.59 1003.47 1002.61 1001.97 1001.27 1000.97 1000.96 1001.13 1001.40 1001.65 1002.11 1002.60 1003.02
1018.02 1018.24 1018.93 1018.43 1017.60 1015.54 1014.47 1013.61 1013.00 1013.68 1013.55 1013.36 1013.50 1013.71 1013.63 1013.73 1013.55 1012.07 1011.38 1011.13 1010.84 1010.53 1010.28 1010.12 1009.68 1009.23 1008.35 1007.58 1007.16 1006.10 1005.52 1004.04 1002.94 1002.49 1002.17 1001.48 1000.97 1000.88 1001.07 1001.36 1001.73 1002.15 1002.68 1003.19
1018.19 1018.86 1019.13 1018.33 1017.50 1015.53 1013.84 1013.15 1013.80 1013.30 1013.04 1013.10 1013.19 1013.21 1013.33 1013.12 1012.75 1012.41 1011.68 1011.32 1010.96 1010.71 1010.34 1010.16 1010.00 1009.25 1008.66 1008.15 1007.30 1006.78 1005.34 1004.10 1002.89 1001.98 1002.32 1001.72 1000.88 1000.74 1001.31 1001.55 1001.93 1002.17 1002.90 1003.48
1017.47 1017.06 1016.96 1016.71 1014.81 1013.26 1012.68 1012.84 1012.40 1012.55 1012.63 1012.62 1012.87 1012.96 1013.08 1013.00 1012.73 1012.32 1012.00 1011.57 1011.12 1010.88 1010.63 1010.48 1010.01 1009.21 1008.33 1007.86 1007.40 1006.67 1005.75 1004.66 1002.56 1001.72 1001.80 1001.47 1001.30 1000.81 1001.04 1001.53 1001.90 1002.22 1002.74 1003.52
1015.42 1014.96 1015.21 1014.99 1013.44 1012.80 1012.36 1011.97 1012.02 1011.91 1012.13 1012.26 1012.35 1012.60 1012.87 1012.98 1012.59 1012.36 1012.19 1011.56 1011.28 1010.96 1010.56 1010.03 1009.41 1008.82 1008.48 1008.23 1007.65 1006.76 1005.30 1004.42 1003.99 1002.54 1001.70 1000.89 1000.95 1001.06 1000.84 1001.07 1001.20 1001.04 1001.41 1002.77
1013.77 1014.03 1013.65 1012.92 1012.19 1011.83 1011.40 1011.06 1011.16 1011.46 1011.76 1012.09 1012.35 1012.70 1012.86 1012.93 1012.53 1012.60 1012.03 1011.45 1011.03 1010.48 1010.05 1009.90 1009.55 1009.03 1007.89 1007.66 1006.70 1006.20 1005.66 1005.30 1004.11 1002.75 1000.58 1000.48 1000.03 1000.47 1000.12 1000.08 1000.14 1000.55 1000.06 1000.34
1012.69 1012.38 1012.48 1011.44 1010.93 1010.98 1010.84 1010.45 1010.89 1011.53 1011.98 1012.42 1012.86 1012.63 1012.69 1012.94 1012.56 1012.48 1011.81 1011.30 1010.89 1010.34 1010.03 1009.84 1009.45 1008.89 1007.70 1007.21 1006.24 1006.37 1006.11 1005.17 1004.04 1002.17 1000.96 999.79 999.39 999.66 999.82 999.34 999.23 999.34 999.81 1000.06
Wind_Speed
3 5 11 21 17 5 4 7 8 10 8 3 10 15 17 18 17 17 16 20 23 22 27 13 11 12 11 11 15 17 18 17 15 11 11 9 12 9 7 7 10 10 8 9
2 11 20 4 4 8 9 15 17 17 18 5 17 23 17 13 17 25 25 22 22 21 19 20 7 9 13 16 16 16 18 17 17 13 12 6 10 5 7 6 7 10 10 9
15 8 12 8 7 6 11 8 18 17 6 6 10 19 16 13 16 22 25 21 20 21 20 21 8 11 9 12 17 19 20 20 19 16 9 4 6 4 3 5 6 8 10 10
9 7 11 6 7 14 19 14 14 11 3 9 3 23 6 9 15 11 19 18 15 17 17 15 9 8 11 15 9 12 15 17 16 17 15 16 11 10 8 10 8 8 10 10
10 5 4 7 16 10 12 3 6 2 3 5 3 6 2 5 7 15 14 15 17 14 13 17 8 10 12 8 11 11 12 14 15 17 16 15 13 10 6 5 11 10 9 10
10 3 6 10 6 10 2 3 2 4 3 10 12 10 7 6 8 5 7 11 13 15 13 8 6 6 5 6 8 11 15 15 15 16 17 19 18 9 8 9 10 9 8 8
2 6 4 5 4 1 4 5 5 5 1 13 7 6 15 13 8 9 14 11 11 11 10 11 7 7 5 7 8 10 13 15 15 17 16 17 16 15 17 15 13 13 10 8
3 15 8 6 10 9 8 11 8 8 11 19 8 13 19 9 8 5 5 8 9 13 9 10 9 4 4 6 7 8 11 10 12 15 17 15 14 10 10 12 10 11 12 12
4 15 0 6 4 10 4 7 7 4 1 2 14 19 17 6 7 2 5 7 11 10 9 11 6 2 6 5 6 8 8 9 12 15 13 15 14 14 13 10 9 9 9 10
4 14 6 2 2 4 7 1 2 2 5 11 9 15 18 17 17 9 6 6 9 9 10 7 6 5 6 8 7 9 9 14 12 12 14 13 14 15 13 11 14 13 11 12
1 4 13 1 8 13 1 4 5 1 6 16 18 13 27 20 8 9 7 8 6 8 10 7 6 6 5 5 8 10 12 15 14 15 16 14 14 14 13 13 14 15 13 14
7 6 9 19 3 4 2 6 8 11 13 12 17 17 23 29 13 10 18 18 15 8 8 8 7 8 8 9 9 13 11 12 15 14 13 16 13 13 15 15 15 15 16 15
4 4 5 3 6 1 7 14 19 16 13 19 21 17 14 21 30 22 16 9 8 8 13 10 8 8 10 9 8 9 11 15 11 9 11 11 13 13 17 18 15 15 15 16
6 8 15 16 16 21 18 10 12 19 16 22 21 25 21 25 29 33 28 10 14 18 20 19 19 18 18 16 13 11 12 9 6 9 13 16 16 18 18 14 15 16 17 17
3 9 7 13 14 13 18 20 20 25 25 23 21 23 18 26 23 19 21 19 18 18 17 17 15 16 16 18 19 18 15 8 6 10 12 16 16 15 14 14 15 14 16 16
1 10 13 21 22 16 20 21 27 19 16 15 21 29 19 20 20 24 16 19 18 18 18 16 17 16 17 18 16 18 18 18 7 10 14 14 10 10 13 13 14 15 15 15
6 7 5 19 21 18 16 20 22 20 23 23 22 8 12 17 19 20 14 19 19 16 17 17 17 17 17 18 17 16 17 18 15 13 12 10 10 13 14 13 14 15 16 14
17 17 5 13 9 7 9 6 10 7 11 11 10 8 12 11 15 14 5 17 16 18 18 17 13 16 17 18 18 17 18 14 14 13 10 3 6 10 9 11 14 15 14 17
15 11 5 4 7 12 13 9 7 7 3 6 8 9 10 12 14 3 10 13 15 16 15 11 15 17 16 17 17 16 18 16 12 13 9 5 5 6 6 11 11 11 11 12
3 10 8 4 3 6 2 4 7 6 8 5 3 3 7 9 11 18 15 15 15 16 11 17 17 17 17 17 16 15 17 15 13 14 11 7 5 6 8 8 9 8 9 10
4 4 4 5 5 7 3 6 1 4 7 1 5 6 3 4 6 15 16 15 11 11 15 15 15 15 16 16 18 18 18 16 11 10 9 6 4 4 4 5 5 8 8 9
5 3 4 2 1 10 4 6 2 6 7 6 4 5 8 9 11 11 15 13 15 15 14 14 14 13 15 16 15 20 20 17 10 7 7 7 3 3 3 6 3 5 7 9
4 8 6 9 8 6 14 13 8 6 8 5 5 8 8 9 11 12 12 15 15 16 14 13 12 16 14 14 14 18 19 21 19 10 10 7 5 5 6 8 9 7 7 7
9 15 8 1 10 13 11 13 10 11 10 7 8 6 5 10 12 12 13 14 14 13 14 12 14 16 19 15 15 16 17 17 20 18 14 7 7 7 7 7 7 9 11 10
10 5 7 13 16 16 18 15 15 10 7 8 4 5 8 7 12 11 14 15 14 15 13 12 13 17 21 17 18 16 16 16 18 19 15 11 7 9 9 10 9 10 11 13
11 18 13 15 20 16 17 16 2 4 6 2 6 11 9 9 13 13 16 15 14 16 15 14 17 17 20 18 20 16 14 14 17 17 13 11 8 8 9 9 8 20 17 19
Wind_Direction
199 134 205 223 206 224 186 217 235 253 253 243 243 254 261 267 281 262 256 260 261 263 267 260 222 198 194 190 192 192 185 186 174 175 173 182 193 190 191 187 181 180 175 173
105 214 220 221 166 211 239 260 264 269 264 226 266 266 267 253 250 260 263 260 259 262 270 269 234 197 192 198 197 190 191 182 187 184 189 187 182 187 192 177 178 181 176 172
214 222 220 198 222 245 229 225 253 261 304 239 283 271 243 251 251 255 266 257 266 264 268 271 228 212 197 197 192 192 188 183 184 180 158 87 86 67 123 183 186 188 177 174
243 233 212 181 203 210 266 224 257 264 354 271 9 297 198 241 249 237 249 266 251 260 261 263 241 220 206 218 192 189 185 180 182 172 170 177 187 185 195 193 190 182 177 176
250 181 174 206 229 159 245 215 229 182 216 327 213 274 150 134 250 254 262 256 260 248 251 263 242 219 217 180 173 171 173 179 182 181 183 184 188 189 161 158 164 176 179 178
250 320 176 217 220 181 108 79 75 62 120 269 197 205 343 163 215 269 269 270 264 269 268 267 255 244 232 166 160 164 169 177 181 184 188 194 194 170 160 163 174 181 183 184
266 214 229 167 251 96 132 79 312 318 54 242 146 205 255 288 233 221 265 278 313 301 299 306 269 249 186 179 170 161 176 186 179 184 194 196 194 184 183 177 180 175 179 191
280 294 185 170 187 192 191 165 178 213 266 280 123 256 276 227 265 279 322 289 301 318 311 268 285 280 256 175 177 179 175 186 191 194 194 194 196 193 193 186 185 186 187 188
215 269 31 210 172 154 177 192 226 265 178 270 268 274 285 238 265 32 347 349 321 297 318 306 316 240 185 178 188 186 187 190 199 212 199 201 195 192 190 180 184 189 182 176
257 276 209 197 176 244 179 112 66 330 221 242 250 270 261 278 280 270 267 313 294 2 322 344 321 260 209 192 189 182 192 208 195 206 217 212 204 195 189 170 187 185 181 170
122 84 266 186 212 235 148 242 213 186 210 257 261 249 269 273 253 236 272 259 295 304 288 305 301 275 247 199 198 202 209 212 208 203 209 205 202 203 191 186 189 188 174 177
227 212 246 253 253 190 156 240 240 237 250 241 258 251 271 279 270 244 271 290 303 307 292 269 266 251 226 228 216 217 218 215 218 217 212 209 201 194 197 201 195 186 182 182
161 226 261 262 295 286 208 235 231 244 269 257 261 260 267 286 291 282 281 286 262 261 278 281 273 282 280 266 245 230 218 224 218 193 201 214 210 200 208 207 196 185 181 181
262 246 256 262 271 289 274 252 255 239 250 258 254 268 260 275 282 294 297 324 356 17 23 15 10 5 351 345 339 308 272 236 207 194 207 211 208 207 210 206 196 186 185 183
10 270 280 308 315 310 303 298 298 284 272 257 267 278 286 268 296 344 359 21 23 15 9 358 352 350 339 343 343 339 331 291 233 224 226 232 223 211 204 199 198 190 190 189
189 281 293 276 283 280 281 280 267 266 274 276 277 285 10 18 10 3 21 15 11 359 346 344 340 339 339 339 337 335 336 328 255 242 235 232 207 207 201 197 191 190 189 186
252 258 271 271 281 295 277 259 274 272 269 283 293 8 18 9 359 345 11 7 352 346 342 334 336 336 336 330 328 336 327 325 313 274 254 235 213 204 201 192 184 186 190 177
254 260 234 267 308 247 256 18 41 21 49 57 69 30 21 352 318 310 341 349 339 333 331 329 337 333 329 327 326 329 327 320 322 310 279 258 224 222 204 190 192 186 187 186
217 241 263 227 205 281 305 19 12 16 3 50 36 4 344 332 316 315 341 338 326 320 315 330 315 313 319 321 324 321 320 315 323 325 304 269 215 224 196 203 196 191 190 190
174 212 228 3 277 246 160 274 241 267 238 202 159 292 328 341 344 308 331 327 318 317 326 327 323 321 315 314 314 312 309 313 319 325 301 262 212 208 203 206 194 189 192 186
5 354 183 259 270 286 240 265 312 55 294 229 178 222 264 277 238 286 305 307 310 319 313 310 318 311 308 316 316 304 302 309 312 305 292 271 216 204 185 172 173 177 179 176
153 146 229 52 116 273 261 353 119 231 275 262 243 270 277 274 285 289 296 306 309 306 309 310 302 302 312 310 314 309 304 309 298 292 279 272 230 136 144 157 134 145 168 175
263 201 222 190 211 299 322 284 265 263 232 226 232 251 243 270 275 281 293 294 299 302 301 298 298 297 300 306 312 299 303 308 305 292 273 244 234 185 163 171 164 161 161 185
242 241 228 6 262 257 259 268 268 278 225 237 233 241 236 266 276 282 284 286 288 288 290 300 308 302 297 300 294 292 305 320 315 305 285 246 214 207 188 188 189 181 173 197
238 130 226 252 266 273 269 257 260 230 232 260 243 249 274 263 275 277 279 281 283 286 293 300 296 298 294 301 297 303 307 308 301 298 293 266 226 220 205 205 199 213 205 199
231 242 246 252 266 264 273 278 222 232 263 250 296 294 283 274 281 289 283 283 287 292 296 295 293 292 293 297 294 294 293 295 292 292 288 269 237 222 220 210 204 220 223 220